Location: *
(32.6310°S, 82.7108°E)
Time: 20:14:06
(UTC+00:00)

Daily predictions for brighter satellites

Satellite Brightness Start Highest point End
(mag) Time Altitude Azimuth Time Altitude Azimuth Time Altitude Azimuth
USA 229 DEB 4.5 12:22:53 10° S 12:28:15 26° SE 12:33:15 10° ENE
USA 229 4.5 12:23:03 10° S 12:28:23 26° SE 12:33:22 10° ENE
FALCON 9 R/B 2.5 12:29:12 10° W 12:31:19 22° NNW 12:33:11 10° NNE
Helios 1B rocket 3.1 12:28:48 10° SE 12:32:21 31° E 12:35:52 10° NNE
ASTRO E2 2.6 12:30:40 10° WNW 12:34:14 64° N 12:37:47 10° E
Cosmos 1315 Rocket 4.5 12:32:11 10° ENE 12:34:15 14° E 12:36:20 10° ESE
DMSP B5D1-3 4.5 12:29:42 10° NNE 12:34:45 77° ESE 12:39:54 10° S
Meteor 1-31 Rocket 3.5 12:33:16 10° SE 12:36:36 30° E 12:39:55 10° NNE
ATLAS 5 CENTAUR R/B 3.1 12:32:20 10° SW 12:37:12 44° WNW 12:41:09 10° N
Meteor 1-16 Rocket 4.5 12:34:30 10° S 12:40:23 53° E 12:46:06 10° NNE
Cosmos 1400 Rocket 3.3 12:37:24 10° NNW 12:41:23 67° W 12:45:23 10° S
SeaSat 1 2.6 12:36:49 10° SSE 12:41:42 55° ENE 12:46:30 10° N
Okean 2 3.3 12:39:05 10° N 12:43:03 69° E 12:47:05 10° SSE
CZ-2C R/B 2.6 12:43:53 10° SSE 12:47:26 58° E 12:50:59 10° N
Cosmos 482 Debris 4.3 12:53:07 10° WNW 12:54:42 26° SW 12:56:23 10° SSE
SEDSat Delta rocket 3.0 12:53:13 10° WNW 12:57:13 58° NNE 13:00:18 17° E
ISS -3.2 12:54:47 10° NNW 12:57:59 41° NE 13:00:16 17° ESE
Cosmos 1782 Rocket 4.5 12:55:18 10° SSE 12:58:58 26° ESE 13:02:36 10° NE
SMAP 3.6 12:56:44 10° S 13:01:25 64° WSW 13:06:02 10° NNW
Cosmos 2285 Rocket 4.0 12:55:26 10° N 13:01:49 77° ENE 13:08:19 10° SSE
Cosmos 1346 Rocket 3.1 12:58:32 10° S 13:02:18 42° E 13:06:01 10° NNE
Cosmos 1908 Rocket 3.5 13:01:31 10° S 13:05:56 68° E 13:10:14 10° NNE
ATLAS 3B R/B 3.2 13:00:18 10° SW 13:06:26 56° WNW 13:12:42 10° NNE
AQUARIUS 4.4 13:03:00 10° S 13:07:31 74° WSW 13:11:58 10° NNW
USA 305 3.1 13:17:07 10° NNW 13:18:56 24° NNE 13:18:56 24° NNE
Cosmos 1992 Rocket 4.0 13:14:30 10° SSW 13:19:46 84° WNW 13:24:58 10° NNE
Shi Jian 4 4.5 13:18:15 10° WNW 13:20:38 45° N 13:22:07 28° ENE
Delta 2 Rocket 3.4 13:17:36 10° W 13:21:18 59° S 13:23:05 30° ESE
CZ-4B R/B 4.0 13:20:21 10° SSE 13:25:16 38° E 13:30:03 10° NNE
Cosmos 1140 Rocket 3.4 13:20:29 10° NNW 13:25:39 82° ENE 13:30:52 10° SSE
USA 307 3.2 13:22:58 10° NNW 13:25:03 27° NNE 13:25:03 27° NNE
Cosmos 1300 Rocket 3.8 13:22:15 10° S 13:26:24 42° E 13:29:11 19° NE
IGS 5A 3.5 13:22:35 10° SSE 13:26:39 52° E 13:30:38 10° N
Cosmos 2242 Rocket 3.5 13:23:20 10° N 13:27:47 66° E 13:32:21 10° SSE
Cosmos 1174 3.3 13:26:35 10° NNW 13:29:50 72° WSW 13:31:12 29° SSE
Lacrosse 5 rocket 3.1 13:27:24 10° NNE 13:28:20 15° NNE 13:28:20 15° NNE
Cosmos 2098 Rocket 4.4 13:25:53 10° S 13:32:18 45° E 13:38:31 10° NNE
Cosmos 1656 4.2 13:28:18 10° S 13:33:38 38° ESE 13:35:00 33° E
Lacrosse 5 4.1 13:35:32 10° SSE 13:36:06 10° SSE 13:36:06 10° SSE
Cosmos 407 Rocket 3.3 13:31:13 10° N 13:36:20 67° ENE 13:41:28 10° SSE
Cosmos 1953 3.1 13:33:38 10° SSW 13:37:28 52° W 13:41:13 10° N
Cosmos 1455 2.1 13:34:24 10° S 13:38:00 77° W 13:41:33 10° N
H-II Stage 2 4.3 13:00:03 10° W 13:48:13 60° NNW 13:52:10 27° NE
Cosmos 1833 Rocket 2.6 13:44:44 10° NNW 13:50:22 82° ENE 13:55:55 11° SSE
USA 215 3.6 13:53:02 40° ESE 13:54:39 47° SE 14:00:55 10° SSW
Meteor 1-4 Rocket 4.0 13:56:52 10° NNW 13:58:34 27° NW 13:58:34 27° NW
Cosmos 1066 4.5 13:58:24 10° N 14:03:50 76° E 14:09:23 10° SSE
ADEOS Rocket 3.0 14:02:15 10° SSE 14:09:16 85° ENE 14:15:27 10° NNW
ASTRO E2 4.2 14:09:24 10° W 14:11:26 31° W 14:11:26 31° W
Meteor 2-5 Rocket 3.8 14:07:32 10° N 14:13:30 86° W 14:19:28 10° S
Cosmos 2251 Rocket 4.2 14:09:46 10° NNW 14:14:59 53° WSW 14:20:17 10° S
Cosmos 2184 Rocket 4.4 14:09:01 10° NNW 14:15:17 65° W 14:21:42 10° S
Cosmos 2154 Rocket 4.0 14:10:46 10° N 14:16:59 80° W 14:23:21 10° S
USA 229 DEB 4.3 14:13:20 10° SW 14:19:18 45° WNW 14:23:07 20° N
USA 229 4.3 14:13:28 10° SW 14:19:27 46° WNW 14:23:10 21° N
Cosmos 1610 Rocket 4.4 14:14:24 10° N 14:20:48 86° E 14:27:17 10° S
YAOGAN 1 4.3 14:23:22 24° NW 14:23:22 24° NW 14:25:11 10° NNW
Cosmos 44 4.3 14:24:38 10° SW 14:29:16 44° WNW 14:29:37 43° NW
Cosmos 1697 Rocket 4.4 14:25:20 10° S 14:27:24 22° S 14:27:24 22° S
Meteor 1-24 Rocket 4.4 14:28:30 10° NNW 14:34:17 56° W 14:39:58 10° S
ISS -0.5 14:32:27 10° WSW 14:33:13 13° WSW 14:33:13 13° WSW
NOSS 3-2 (A) 4.3 21:58:46 68° S 21:58:46 68° S 22:05:50 10° SSE
CZ-4C R/B 4.4 22:11:32 23° SSW 22:11:32 23° SSW 22:14:50 10° S
Cosmos 1975 4.4 22:35:17 32° E 22:35:32 33° E 22:39:10 10° SSE
CENTAUR R/B 3.8 22:40:11 31° SSW 22:40:11 31° SSW 22:45:14 10° S
GEOS 3 Rocket 3.8 22:36:48 10° SE 22:42:04 68° ENE 22:43:13 53° N
Meteor 2-9 Rocket 4.3 22:43:55 66° SSW 22:43:55 66° SSW 22:49:08 10° S
Cosmos 1666 Rocket 4.5 22:41:53 22° NNE 22:44:25 47° E 22:48:39 10° SSE
Milstar 3 Cent rocket 4.1 22:40:02 26° NW 22:45:09 40° NNE 22:51:22 10° E
SL-16 R/B 3.4 22:39:50 10° S 22:43:31 33° SSW 22:43:31 33° SSW
IRS-P3 4.3 22:41:38 10° NNE 22:46:57 70° ESE 22:52:20 10° S
Cosmos 2228 Rocket 4.2 22:47:40 10° S 22:52:06 45° E 22:56:25 10° NNE
FengYun 1-2 T 4.1 22:51:18 10° NNE 22:56:48 89° WNW 23:02:22 10° SSW
Cosmos 2278 Rocket 3.8 22:57:36 10° NNE 23:02:38 34° ENE 23:07:41 10° SE
Cosmos 614 Rocket 3.8 23:03:33 61° WNW 23:03:33 61° WNW 23:08:29 10° N
Cosmos 1553 Rocket 3.9 22:58:13 10° N 23:04:19 85° E 23:10:28 10° S
Hubble Space Telescope 3.3 23:06:29 10° N 23:08:06 12° NNE 23:09:42 10° NE
NOSS 3-2 (C) 4.3 23:05:14 30° WNW 23:09:55 59° WSW 23:18:01 10° SSE
In-Cosmos 22 4.1 23:09:01 10° SSW 23:14:13 53° W 23:19:21 10° N
Nadezhda 2 Rocket 4.5 23:08:20 10° S 23:14:42 85° E 23:20:53 10° N
BREEZE-M DEB (TANK) 4.2 23:17:27 35° SSW 23:17:27 35° SSW 23:19:47 10° SSE
Cosmos 192 4.5 23:13:26 10° N 23:18:20 75° ENE 23:23:20 10° SSE
ARIANE 5 R/B 2.7 23:13:47 10° N 23:18:43 46° W 23:23:40 10° SSW
ARGOS 3.2 23:14:57 10° N 23:20:11 53° W 23:25:29 10° SSW
Cosmos 1633 Rocket 2.9 23:18:24 10° NNW 23:22:47 71° W 23:27:15 10° S
Lacrosse 5 rocket 1.8 23:27:50 39° W 23:28:42 45° WNW 23:32:52 10° NNE
Meteor 1-23 Rocket 4.3 23:23:26 10° SSW 23:29:10 57° W 23:34:49 10° N
Spot 4 Rocket 4.1 23:24:57 10° NNE 23:30:05 80° ESE 23:35:18 10° S
Cosmos 1269 Rocket 4.0 23:28:17 10° SSW 23:33:33 60° WNW 23:38:45 10° N
Cosmos 220 Rocket 3.9 23:30:19 13° SSW 23:33:54 56° WNW 23:38:00 10° N
OAO 3 Rocket 3.6 23:32:33 23° NW 23:35:22 57° NNE 23:39:58 10° E
Meteor 1-21 4.2 23:30:04 10° S 23:35:55 85° W 23:41:38 10° N
DELTA 2 R/B (1) 4.3 23:34:01 23° WSW 23:36:59 41° S 23:42:15 10° ESE
CZ-2D R/B 3.9 23:34:03 10° N 23:38:09 43° W 23:42:21 10° SSW
DMSP B5D2-2 4.2 23:38:48 10° S 23:43:57 53° WSW 23:49:01 10° NNW
PSLV R/B 3.3 23:41:04 10° N 23:45:12 77° WNW 23:49:23 10° SSW
SeaSat 1 2.5 23:42:59 10° N 23:47:48 58° WNW 23:52:42 10° SSW
BREEZE M DEB (TANK) 4.3 23:51:01 10° SW 23:52:51 14° S 23:55:43 10° SSE
SL-4 R/B 1.8 23:50:21 13° NW 23:53:48 83° SW 23:57:58 10° SE
